Flag for Montserrat Weather past 2 weeks in Brades, Montserrat

Now
81 °F

Sprinkles. Scattered clouds.


Feels Like: 84 °F
Forecast: 77 / 80 °F
Wind: 16 mph from East

Location: Vc Bird International Antigua Airport


UV Index: 10 (Very high)

Visibility: N/A


Pressure: 30.07 "Hg

Humidity: 70%

Dew point: 70 °F

Location of BradesLocation

Historic Weather in Brades

°F

Brades temperature yesterday

Maximum temperature yesterday: 82 °F (at 12:00 PM)
Minimum temperature yesterday: 75 °F (at 8:00 PM)
Average temperature yesterday: 79 °F

Past Weeks' High & Low Weather Summary

 TemperatureHumidityPressure
High84 °F (Apr 8, 12:00 PM)94% (Apr 13, 3:00 AM)30.12 "Hg (Apr 13, 3:00 AM)
Low70 °F (Apr 13, 3:00 AM)51% (Apr 17, 6:00 PM)29.89 "Hg (Apr 15, 3:00 PM)
Average78 °F72%30.02 "Hg
* Reported Apr 4 10:00 AM — Apr 19 10:00 AM, Brades, Weather by CustomWeather, © 2014

Note: Actual official high and low records may vary slightly from our data, if they occured in-between our weather recording intervals... More about our weather records

Advertising

Historic Weather Conditions — Data for Previous 24 hours

 ConditionsComfort  
Time TempWeatherWind HumidityBarometerVisibility
10:00 AM
Apr 19
79 °FScattered clouds.17 mph79%30.07 "HgN/A
9:00 AM75 °FSprinkles. Partly sunny.12 mph83%30.07 "HgN/A
8:00 AM79 °FSprinkles. Partly sunny.12 mph74%30.07 "HgN/A
6:00 AM75 °FSprinkles. Scattered clouds.8 mph83%30.04 "HgN/A
5:00 AM77 °FPartly cloudy.13 mph79%30.01 "HgN/A
4:00 AM77 °FPassing clouds.13 mph79%30.01 "HgN/A
3:00 AM77 °FPassing clouds.13 mph79%30.01 "HgN/A
2:00 AM77 °FPassing clouds.9 mph79%30.01 "HgN/A
1:00 AM75 °FSprinkles. Passing clouds.9 mph83%30.04 "HgN/A
12:00 AM77 °FPassing clouds.10 mph79%30.04 "HgN/A
11:00 PM
Apr 18
77 °FPassing clouds.15 mph79%30.04 "HgN/A
10:00 PM77 °FPassing clouds.16 mph79%30.04 "HgN/A
9:00 PM77 °FPassing clouds.16 mph79%30.04 "HgN/A
8:00 PM75 °FPassing clouds.16 mph89%30.04 "HgN/A
7:00 PM79 °FPassing clouds.17 mph74%30.01 "HgN/A
6:00 PM79 °FScattered clouds.13 mph74%30.01 "HgN/A
5:00 PM79 °FScattered clouds.17 mph74%30.01 "HgN/A
4:00 PM81 °FScattered clouds.18 mph66%30.01 "HgN/A
3:00 PM81 °FScattered clouds.17 mph70%30.01 "HgN/A
2:00 PM82 °FScattered clouds.18 mph66%30.01 "HgN/A
1:00 PM82 °FScattered clouds.18 mph66%30.04 "HgN/A
12:00 PM82 °FScattered clouds.14 mph66%30.04 "HgN/A
11:00 AM79 °FSprinkles. Scattered clouds.13 mph74%30.04 "HgN/A
Weather by CustomWeather, © 2014

See weather overview